EW8041 Weather Reports


Display with metric or nautical units.
time (UTC)temp
F
wind
direction
speed
MPH
gust
MPH
rain 1hr
in
rain 24hr
in
rain mn
in
humidity
%
barometer
mb
20260504212517 80 161 2.0 4.0 0.00 0.00 0.00 50 1012.3
20260504211533 80 223 3.0 9.0 0.00 0.00 0.00 50 1012.3
20260504210528 80 161 4.0 13.0 0.00 0.00 0.00 50 1012.5
20260504205524 80 186 3.0 8.0 0.00 0.00 0.00 51 1012.6
20260504204601 79 185 5.0 9.0 0.00 0.00 0.00 52 1012.6
20260504203516 79 177 3.0 7.0 0.00 0.00 0.00 52 1012.6
20260504202532 79 158 5.0 11.0 0.00 0.00 0.00 52 1012.7
20260504201548 79 177 4.0 9.0 0.00 0.00 0.00 52 1012.9
20260504200523 81 148 3.0 8.0 0.00 0.00 0.00 53 1013.0
20260504195539 80 205 3.0 7.0 0.00 0.00 0.00 53 1013.0
20260504194535 81 212 3.0 9.0 0.00 0.00 0.00 54 1013.1
20260504193531 80 155 2.0 6.0 0.00 0.00 0.00 55 1013.3
20260504192527 80 266 4.0 8.0 0.00 0.00 0.00 55 1013.4
20260504191523 80 252 4.0 10.0 0.00 0.00 0.00 54 1013.5
20260504190519 80 222 3.0 8.0 0.00 0.00 0.00 56 1013.9
20260504185555 79 181 3.0 8.0 0.00 0.00 0.00 56 1013.9
20260504184531 80 243 3.0 8.0 0.00 0.00 0.00 56 1014.1
20260504183546 79 183 2.0 8.0 0.00 0.00 0.00 57 1014.3
20260504182522 79 169 3.0 8.0 0.00 0.00 0.00 56 1014.3
20260504181518 79 235 2.0 6.0 0.00 0.00 0.00 56 1014.4
20260504180535 79 227 3.0 7.0 0.00 0.00 0.00 57 1014.5
20260504175550 79 222 2.0 8.0 0.00 0.00 0.00 58 1014.6
20260504174526 78 164 4.0 10.0 0.00 0.00 0.00 58 1014.8
20260504173522 78 244 2.0 7.0 0.00 0.00 0.00 58 1015.0
20260504172558 78 201 3.0 8.0 0.00 0.00 0.00 58 1015.1
20260504171534 78 202 4.0 9.0 0.00 0.00 0.00 59 1015.4
20260504170529 77 208 3.0 11.0 0.00 0.00 0.00 58 1015.4
20260504150521 72 201 3.0 8.0 0.00 0.00 0.00 68 1016.3
20260504140516 68 151 2.0 6.0 0.00 0.00 0.00 72 1017.0
20260504130551 62 118 1.0 3.0 0.00 0.00 0.00 83 1017.1
20260504110522 45 0.0 0.0 0.00 0.00 0.00 83 1016.2
20260504100517 45 0.0 0.0 0.00 0.00 0.00 82 1015.8
20260504081532 46 0.0 0.0 0.00 0.00 0.00 78 1016.1
20260504080528 46 0.0 0.0 0.00 0.00 0.00 78 1016.1
20260504050515 49 0.0 0.0 0.00 0.00 0.00 69 1017.4
20260504045532 49 0.0 0.0 0.00 0.00 0.00 68 1017.3
20260504044527 49 207 0.0 1.0 0.00 0.00 0.00 68 1017.3
20260504043523 49 0.0 0.0 0.00 0.00 0.00 67 1017.4
20260504042539 49 0.0 0.0 0.00 0.00 0.00 66 1017.2
20260504041536 49 0.0 0.0 0.00 0.00 0.00 65 1017.2
20260504040531 50 0.0 0.0 0.00 0.00 0.00 65 1017.2
20260504035547 50 0.0 0.0 0.00 0.00 0.00 64 1017.3
20260504034522 50 0.0 0.0 0.00 0.00 0.00 63 1017.5
20260504033518 51 207 0.0 1.0 0.00 0.00 0.00 62 1017.6
20260504032554 51 0.0 0.0 0.00 0.00 0.00 61 1017.7
20260504031530 52 207 0.0 1.0 0.00 0.00 0.00 61 1017.8
20260504030545 52 207 0.0 1.0 0.00 0.00 0.00 60 1018.0
20260504025541 52 0.0 0.0 0.00 0.00 0.00 59 1018.0
20260504024516 53 207 0.0 1.0 0.00 0.00 0.00 58 1017.7
20260504023532 53 207 0.0 1.0 0.00 0.00 0.00 57 1017.8
20260504022528 54 207 0.0 1.0 0.00 0.00 0.00 56 1017.8
20260504021524 54 242 1.0 1.0 0.00 0.00 0.00 55 1017.5
20260504020520 55 0.0 0.0 0.00 0.00 0.00 55 1017.5
20260504015516 55 0.0 0.0 0.00 0.00 0.00 54 1017.4
20260504014532 56 0.0 0.0 0.00 0.00 0.00 53 1017.1
20260504013548 57 0.0 0.0 0.00 0.00 0.00 52 1017.1
20260504012523 58 256 0.0 1.0 0.00 0.00 0.00 51 1017.0
20260504011519 59 256 0.0 1.0 0.00 0.00 0.00 50 1016.8
20260504010535 60 256 0.0 1.0 0.00 0.00 0.00 49 1017.0
20260504005551 61 256 0.0 1.0 0.00 0.00 0.00 48 1017.0
20260504004527 62 256 0.0 1.0 0.00 0.00 0.00 47 1016.9
20260504003523 64 256 0.0 1.0 0.00 0.00 0.00 46 1016.7
20260504002539 65 239 1.0 2.0 0.00 0.00 0.00 46 1016.9
20260504001534 66 258 2.0 3.0 0.00 0.00 0.00 46 1017.0
20260504000531 66 275 2.0 4.0 0.00 0.00 0.00 46 1017.0
20260503235526 66 286 2.0 4.0 0.00 0.00 0.00 46 1017.0
20260503234522 67 274 2.0 6.0 0.00 0.00 0.00 46 1017.0
20260503233518 67 272 2.0 6.0 0.00 0.00 0.00 45 1017.2
20260503232554 67 266 2.0 6.0 0.00 0.00 0.00 44 1017.1
20260503231530 67 264 1.0 6.0 0.00 0.00 0.00 46 1017.2
20260503230525 68 248 2.0 4.0 0.00 0.00 0.00 47 1017.3
20260503225521 68 273 4.0 7.0 0.00 0.00 0.00 47 1017.3
20260503224517 68 259 2.0 7.0 0.00 0.00 0.00 47 1017.3
20260503223533 68 280 2.0 6.0 0.00 0.00 0.00 47 1017.4
20260503222529 68 311 1.0 6.0 0.00 0.00 0.00 46 1017.5
20260503221525 68 176 2.0 6.0 0.00 0.00 0.00 48 1017.5
20260503220521 69 258 1.0 4.0 0.00 0.00 0.00 48 1017.6
20260503215517 69 254 1.0 6.0 0.00 0.00 0.00 48 1017.6
20260503214533 69 260 3.0 7.0 0.00 0.00 0.00 48 1017.8
20260503213529 68 240 2.0 6.0 0.00 0.00 0.00 48 1017.9